Weather in Solyanka

Russia / Astrakhan Oblast     46°23′13″N   48°00′11″E
temp.,
°C
wind,
m/s
gust,
m/s
humid.,
%
clouds,
%
prec.,
mm/h
press.,
hPa
HPBL,
m
5 august, thu
thu501:00+29nw4938100 0.0 1011237
04:00+28n41042100 0.0 1011286
07:00+28nne5114667 0.0 1012430
10:00+33nne673371 0.0 10121047
13:00+36nne55265 0.0 10121832
16:00+38n642257 0.0 10113061
19:00+33nne6828100 0.4 1012710
22:00+28nnw4736100 0.8 1012170
6 august, fri
fri601:00+27nne5112837 0.0 1012285
04:00+26ne4103229 0.0 1012235
07:00+27ne49325 0.0 1012332
10:00+33ne55222 0.0 10121323
13:00+36ne43160 0.0 10111922
16:00+37ne53160 0.0 10102430
19:00+35ne55160 0.0 10091236
22:00+28ese23280 0.0 101059
7 august, sat
sat701:00+27ene49320 0.0 1010179
04:00+26ene512250 0.0 1010305
07:00+27ene613220 0.0 1010410
10:00+35ese79160 0.0 10101350
13:00+38ese77151 0.0 10092133
16:00+39ese771450 0.0 10082142
19:00+35ese79190 0.0 1008891
22:00+29e512240 0.0 1009293
8 august, sun
sun801:00+28e6162899 0.0 1009367
04:00+27e51533100 0.0 1009348
07:00+29ese61541100 0.0 1009396
10:00+39se912166 0.0 10091416
13:00+41se1013148 0.0 10082231
16:00+41se8101592 0.0 10081859
19:00+36se78215 0.0 1008804
22:00+29se48455 0.0 1009161
9 august, mon
mon901:00+28s35426 0.0 100986
04:00+27s234783 0.0 100942
07:00+29w234699 0.0 1009122
10:00+35nnw452952 0.0 1009608
13:00+40nnw441925 0.0 10092147
16:00+41nw33175 0.0 10083034
19:00+39nw22204 0.1 10081199
22:00+32sw243513 0.1 100994